User: anonymous   Login
Location: Brede
(50.9167°N, 0.6000°E)
Time: 14:04:40
(UTC+00:00)
Language:

Cosmos 44 Rocket - Orbit

View from above orbital plane
View from above orbital plane
View from above satellite
View from above satellite

Ground track
Ground track

The orbit data is extracted from the following two-line orbital elements,

1   877U 64053B   20294.77662632 -.00000077 +00000-0 +92896-5 0  9990
2   877 065.0778 322.7495 0071054 337.1053 022.6882 14.59402122979775
Epoch (UTC): 20 October 2020 18:38:20
Eccentricity: 0.0071054
inclination: 65.0778°
perigee height: 645 km
apogee height: 745 km
right ascension of ascending node: 322.7495°
argument of perigee: 337.1053°
revolutions per day: 14.59402122
mean anomaly at epoch: 22.6882°
orbit number at epoch: 97977

The dashed part of the orbit path shows where the satellite is in the earth's shadow,  

DLR